Theta_e
341 344 354 358 359 361 361 360 359 359 359 359 359 357 355 354 352 350 348 347 345 342 342 341 340 340 339 339 339 339 340 342
340 341 350 356 358 360 361 360 359 359 359 359 359 357 355 354 352 349 348 346 345 343 342 342 342 343 343 342 341 342 343 345
338 341 346 355 356 357 359 359 358 358 358 359 358 358 357 355 352 350 348 347 347 347 346 344 345 345 345 345 344 344 345 345
336 341 344 347 352 357 357 358 358 357 357 357 357 357 356 355 353 351 349 348 348 348 348 348 347 347 346 345 345 346 346 346
335 339 341 344 346 346 350 357 357 357 357 357 357 356 355 355 353 352 348 348 348 348 349 348 348 347 347 347 347 346 346 345
336 336 341 343 343 342 342 350 355 357 357 356 356 355 352 348 346 345 346 346 348 348 349 349 348 348 348 347 346 345 345 337
330 334 339 341 342 340 343 341 343 344 347 347 347 347 343 338 337 341 344 346 347 348 348 348 348 348 345 339 339 344 338 337
332 335 338 341 341 340 339 340 342 338 338 338 337 337 337 336 336 339 336 338 337 345 338 342 341 341 337 336 336 335 335 335
332 334 336 339 339 339 337 340 339 338 337 337 336 335 335 333 332 332 334 333 333 333 332 333 334 335 336 336 336 335 335 334
333 335 336 335 336 337 334 337 336 336 336 336 335 335 335 333 331 330 331 331 331 329 330 330 330 333 334 335 337 336 335 333
332 338 339 337 334 333 332 333 333 334 333 333 335 335 335 332 330 330 327 329 329 329 330 331 330 330 331 333 334 335 334 333
325 338 341 339 336 331 329 330 331 332 332 332 332 333 334 332 329 328 327 326 328 329 328 329 328 327 327 330 331 331 332 332
325 333 341 343 338 334 332 332 333 334 334 334 333 333 334 334 332 329 327 327 327 327 329 329 327 325 326 326 328 329 329 330
323 327 333 339 338 336 334 334 335 337 337 337 337 336 336 336 335 332 331 329 327 328 328 328 326 326 323 324 327 327 328 329
321 324 328 335 338 338 337 338 337 339 339 338 339 339 339 338 337 333 333 331 329 328 327 327 326 326 324 325 328 328 327 328
320 320 324 327 329 334 338 337 337 337 339 340 341 341 340 340 339 334 334 332 331 328 329 329 327 325 324 325 323 321 323 327
314 320 323 326 329 332 334 339 336 339 338 341 341 339 339 340 340 337 335 334 333 331 328 329 328 324 326 327 324 322 316 319
309 313 321 323 325 329 337 334 328 331 329 331 331 333 336 338 341 340 337 335 334 334 331 330 329 327 325 326 327 325 319 316
304 307 317 323 324 327 337 337 333 333 333 330 331 331 332 334 337 341 339 336 336 336 332 332 331 328 328 326 327 329 326 323
Wind_Speed
17 16 21 26 22 21 22 22 21 20 20 19 18 17 17 16 14 14 13 12 12 12 11 10 8 6 5 3 2 1 1 2
17 14 18 24 22 21 21 22 22 21 19 19 18 17 16 14 14 14 13 13 12 12 12 11 10 8 7 5 4 3 3 6
18 16 15 21 20 19 20 21 22 21 20 18 17 17 16 15 15 14 13 13 12 12 11 11 9 8 6 5 6 4 4 6
11 12 13 13 15 18 18 19 19 20 20 20 18 17 17 17 16 15 14 13 12 11 11 10 10 9 8 7 7 6 6 7
6 9 10 10 10 9 10 17 19 19 20 19 19 17 16 16 16 15 13 13 13 12 11 11 11 10 9 8 8 7 7 8
4 4 7 9 7 6 6 10 14 18 18 18 17 18 14 7 8 10 10 13 13 13 13 12 11 11 10 10 10 10 9 2
9 6 6 8 8 6 7 6 6 7 8 9 9 10 7 6 6 7 10 14 13 13 12 12 11 11 11 4 3 9 2 4
13 8 11 11 8 8 7 4 4 3 3 4 6 6 6 5 5 5 3 4 4 11 4 7 5 4 5 4 4 4 4 4
10 18 15 14 13 12 6 6 6 5 4 5 6 7 6 4 6 4 4 5 4 4 5 5 3 4 5 6 6 5 5 4
9 8 13 15 14 14 11 8 6 8 7 6 6 7 6 5 5 5 5 5 5 4 5 5 4 4 5 5 5 6 5 6
10 11 8 13 14 12 11 10 9 7 7 6 7 7 9 6 5 5 5 6 5 5 5 5 6 5 5 4 6 6 7 6
7 13 16 15 9 11 12 8 7 8 8 8 8 9 10 8 6 7 5 5 6 6 6 4 4 4 4 4 7 5 5 7
5 9 11 13 16 15 14 10 8 8 7 7 8 8 11 10 8 7 6 6 5 5 6 6 4 4 4 4 5 6 5 5
9 9 7 8 14 16 13 10 10 8 8 7 7 7 10 10 11 9 7 5 6 5 6 6 3 5 4 4 6 5 5 5
10 10 9 10 12 14 11 10 7 5 6 4 7 8 11 9 11 10 7 7 8 5 5 5 5 4 3 5 4 5 3 5
9 8 11 9 11 8 8 8 6 9 8 6 9 11 10 8 10 10 7 7 9 9 9 9 4 5 4 4 3 2 3 5
9 11 11 13 15 9 8 9 5 9 6 6 7 7 7 9 9 9 10 9 10 7 7 8 7 3 3 5 4 1 1 3
8 9 14 14 14 12 14 4 2 4 3 3 4 4 7 8 9 11 10 8 8 8 8 9 8 8 5 4 5 3 2 4
11 10 10 15 16 15 15 11 10 12 11 6 4 3 5 7 8 8 9 9 9 7 7 8 7 6 5 5 1 2 1 4
Wind_Direction
162 165 168 160 170 175 171 163 160 160 159 160 161 162 163 166 166 164 168 170 169 167 164 162 164 170 170 179 181 229 316 329
164 164 170 160 170 178 175 167 164 165 166 164 166 168 169 172 175 172 175 175 179 177 173 174 170 184 182 194 225 257 310 317
161 160 168 162 169 182 182 172 167 168 167 169 171 173 173 177 181 184 183 184 187 188 182 183 179 183 190 204 230 251 292 307
155 156 156 161 172 187 186 177 172 169 169 173 175 179 179 182 187 188 188 189 196 197 190 189 185 186 195 213 232 243 268 286
139 154 152 158 171 184 186 187 176 173 174 179 177 183 184 188 193 191 188 193 202 203 198 196 191 192 196 208 227 235 253 268
144 150 149 158 163 167 183 193 183 181 179 182 184 185 185 184 195 197 191 199 204 209 207 202 197 197 197 211 227 241 251 243
191 176 158 156 175 172 187 192 181 188 184 185 187 183 179 174 180 190 196 206 210 215 216 211 204 205 206 188 227 244 235 249
185 185 183 176 171 176 199 180 186 186 176 183 172 183 177 175 189 189 175 197 190 215 209 216 208 201 192 183 206 223 238 244
218 194 186 185 179 185 191 189 189 193 189 190 187 185 182 185 189 177 183 190 184 194 192 196 185 197 197 196 212 215 232 237
209 215 208 186 192 193 193 187 185 198 197 195 188 190 184 197 194 175 186 181 192 180 191 191 189 195 197 205 217 219 229 241
184 189 193 207 198 188 198 194 195 198 195 188 192 194 196 196 187 193 179 191 195 197 197 188 190 195 203 195 221 224 228 237
220 202 184 189 197 195 196 192 192 207 199 200 199 182 188 193 187 188 190 193 201 198 182 182 192 171 180 197 226 224 227 237
168 202 205 189 185 195 202 192 204 207 204 205 214 181 186 189 184 187 188 198 188 183 186 190 175 179 193 186 225 229 230 229
228 201 204 208 195 194 201 188 202 202 218 195 203 194 187 186 191 190 192 194 179 183 193 191 179 175 175 191 224 236 224 233
227 214 197 194 207 201 200 194 194 192 210 218 211 205 188 186 189 189 189 179 181 185 189 185 187 176 165 197 214 243 246 247
268 256 212 185 209 200 200 196 206 209 203 198 226 215 191 185 186 187 196 179 181 192 199 195 170 167 201 159 101 278 258 242
248 243 246 217 207 189 194 219 193 198 237 203 209 203 183 189 177 183 193 194 185 184 171 187 182 147 179 168 160 152 272 315
279 227 236 239 227 205 202 148 71 59 89 134 201 194 195 187 186 194 193 189 184 186 184 185 187 169 166 180 197 153 120 226
280 284 237 234 226 220 206 202 198 209 203 208 192 180 190 198 212 186 191 189 184 184 173 185 183 178 145 158 171 231 22 144